LVFEL SAZB-SABE

Flight info

Callsign LVFEL
Flight time 0h 54m
Altitude 25000
Route PULA1C PULAS UW22 VALOS VALO9Q
Aircraft A20N/M-S/C

Departure

Time 2026-05-09 19:44
Airport Comandante Espora Airport (SAZB)

Arrival

Time 2026-05-09 20:38
Airport Aeroparque Jorge Newbery (SABE)
Time Latitude Longitude Altitude Speed Heading
2026-05-09 19:34 -38.71656 -62.16314 256 ft 0 kts 242°
2026-05-09 19:39 -38.71651 -62.16303 257 ft 1 kts 255°
2026-05-09 19:39 -38.71649 -62.16289 257 ft 1 kts 284°
2026-05-09 19:39 -38.71653 -62.16275 257 ft 2 kts 317°
2026-05-09 19:39 -38.71663 -62.16268 257 ft 1 kts 21°
2026-05-09 19:40 -38.71664 -62.16267 256 ft 0 kts 27°
2026-05-09 19:41 -38.71662 -62.16266 256 ft 1 kts 28°
2026-05-09 19:41 -38.71649 -62.16257 256 ft 0 kts 28°
2026-05-09 19:42 -38.71646 -62.16253 257 ft 3 kts 40°
2026-05-09 19:42 -38.71644 -62.16203 257 ft 12 kts 93°
2026-05-09 19:42 -38.71638 -62.16037 256 ft 25 kts 64°
2026-05-09 19:43 -38.71561 -62.15866 258 ft 19 kts 75°
2026-05-09 19:43 -38.71611 -62.15759 257 ft 0 kts 158°
2026-05-09 19:43 -38.71623 -62.15755 257 ft 18 kts 166°
2026-05-09 19:44 -38.72007 -62.15629 250 ft 103 kts 165°
2026-05-09 19:44 -38.72950 -62.15239 455 ft 156 kts 168°
2026-05-09 19:44 -38.73998 -62.14782 1328 ft 165 kts 171°
2026-05-09 19:44 -38.75158 -62.14373 2238 ft 180 kts 171°
2026-05-09 19:45 -38.76398 -62.13897 3201 ft 197 kts 160°
2026-05-09 19:45 -38.77477 -62.12630 4049 ft 233 kts 128°
2026-05-09 19:45 -38.78002 -62.10507 4825 ft 268 kts 98°
2026-05-09 19:45 -38.77713 -62.08179 5537 ft 281 kts 71°
2026-05-09 19:46 -38.76560 -62.06085 6288 ft 292 kts 43°
2026-05-09 19:46 -38.74909 -62.04553 7004 ft 297 kts 35°
2026-05-09 19:46 -38.73242 -62.02965 7699 ft 300 kts 42°
2026-05-09 19:46 -38.71711 -62.01102 8430 ft 306 kts 50°
2026-05-09 19:47 -38.70349 -61.99082 9145 ft 311 kts 54°
2026-05-09 19:47 -38.69019 -61.96874 9900 ft 317 kts 57°
2026-05-09 19:47 -38.67498 -61.94773 10592 ft 333 kts 38°
2026-05-09 19:47 -38.65389 -61.93342 11281 ft 355 kts 22°
2026-05-09 19:48 -38.63014 -61.92168 12004 ft 374 kts 21°
2026-05-09 19:48 -38.60553 -61.90879 12731 ft 387 kts 25°
2026-05-09 19:48 -38.58089 -61.89423 13463 ft 393 kts 27°
2026-05-09 19:48 -38.55633 -61.87848 14181 ft 398 kts 29°
2026-05-09 19:49 -38.53168 -61.86201 14847 ft 402 kts 30°
2026-05-09 19:49 -38.50767 -61.84571 15506 ft 407 kts 31°
2026-05-09 19:49 -38.48251 -61.82860 16200 ft 411 kts 31°
2026-05-09 19:49 -38.45714 -61.81137 16910 ft 416 kts 31°
2026-05-09 19:50 -38.43146 -61.79398 17641 ft 421 kts 31°
2026-05-09 19:50 -38.40540 -61.77636 18391 ft 426 kts 31°
2026-05-09 19:50 -38.37916 -61.75866 19050 ft 430 kts 31°
2026-05-09 19:50 -38.35253 -61.74070 19714 ft 435 kts 31°
2026-05-09 19:51 -38.32558 -61.72255 20398 ft 440 kts 31°
2026-05-09 19:51 -38.29880 -61.70452 21086 ft 444 kts 31°
2026-05-09 19:51 -38.27122 -61.68598 21802 ft 450 kts 31°
2026-05-09 19:51 -38.24349 -61.66735 22533 ft 455 kts 31°
2026-05-09 19:52 -38.21524 -61.64839 23286 ft 460 kts 31°
2026-05-09 19:52 -38.18680 -61.62933 23997 ft 464 kts 31°
2026-05-09 19:52 -38.16782 -61.61662 24424 ft 467 kts 31°
2026-05-09 19:52 -38.12911 -61.59073 25028 ft 474 kts 31°
2026-05-09 19:53 -38.09982 -61.57115 25156 ft 475 kts 31°
2026-05-09 19:53 -38.08040 -61.55819 25181 ft 475 kts 32°
2026-05-09 19:53 -38.05125 -61.53875 25186 ft 475 kts 32°
2026-05-09 19:53 -38.02203 -61.51928 25187 ft 475 kts 32°
2026-05-09 19:54 -37.99346 -61.50026 25178 ft 474 kts 32°
2026-05-09 19:54 -37.96474 -61.47984 25187 ft 471 kts 38°
2026-05-09 19:54 -37.93798 -61.45632 25184 ft 469 kts 40°
2026-05-09 19:54 -37.91133 -61.43260 25173 ft 469 kts 40°
2026-05-09 19:55 -37.88451 -61.40878 25177 ft 469 kts 40°
2026-05-09 19:55 -37.85786 -61.38518 25176 ft 469 kts 40°
2026-05-09 19:55 -37.83116 -61.36158 25177 ft 468 kts 40°
2026-05-09 19:56 -37.77770 -61.31443 25182 ft 468 kts 40°
2026-05-09 19:56 -37.75121 -61.29110 25176 ft 468 kts 40°
2026-05-09 19:56 -37.72463 -61.26771 25183 ft 468 kts 40°
2026-05-09 19:56 -37.69790 -61.24421 25178 ft 468 kts 40°
2026-05-09 19:57 -37.67115 -61.22070 25177 ft 468 kts 40°
2026-05-09 19:57 -37.64457 -61.19736 25177 ft 468 kts 40°
2026-05-09 19:57 -37.61787 -61.17395 25175 ft 467 kts 40°
2026-05-09 19:57 -37.59116 -61.15055 25178 ft 467 kts 40°
2026-05-09 19:58 -37.56450 -61.12721 25174 ft 467 kts 40°
2026-05-09 19:58 -37.53784 -61.10390 25176 ft 467 kts 40°
2026-05-09 19:58 -37.51108 -61.08051 25176 ft 467 kts 40°
2026-05-09 19:58 -37.48440 -61.05722 25176 ft 467 kts 40°
2026-05-09 19:59 -37.45767 -61.03391 25174 ft 466 kts 40°
2026-05-09 19:59 -37.43103 -61.01069 25179 ft 466 kts 40°
2026-05-09 19:59 -37.40442 -60.98753 25173 ft 466 kts 40°
2026-05-09 19:59 -37.37780 -60.96438 25174 ft 466 kts 40°
2026-05-09 20:00 -37.35109 -60.94117 25174 ft 465 kts 40°
2026-05-09 20:00 -37.32452 -60.91810 25170 ft 465 kts 40°
2026-05-09 20:00 -37.29795 -60.89505 25169 ft 464 kts 40°
2026-05-09 20:00 -37.27137 -60.87201 25172 ft 464 kts 40°
2026-05-09 20:01 -37.24478 -60.84898 25172 ft 464 kts 40°
2026-05-09 20:01 -37.21824 -60.82602 25167 ft 464 kts 40°
2026-05-09 20:01 -37.19159 -60.80298 25165 ft 464 kts 40°
2026-05-09 20:01 -37.16499 -60.78001 25170 ft 464 kts 40°
2026-05-09 20:02 -37.13841 -60.75707 25169 ft 464 kts 40°
2026-05-09 20:02 -37.11221 -60.73448 25170 ft 464 kts 40°
2026-05-09 20:02 -37.08526 -60.71126 25164 ft 464 kts 40°
2026-05-09 20:03 -37.03247 -60.66581 25168 ft 464 kts 40°
2026-05-09 20:03 -37.00588 -60.64296 25165 ft 463 kts 40°
2026-05-09 20:03 -36.97932 -60.62015 25168 ft 463 kts 40°
2026-05-09 20:03 -36.95282 -60.59742 25164 ft 462 kts 40°
2026-05-09 20:04 -36.92625 -60.57464 25161 ft 462 kts 40°
2026-05-09 20:04 -36.89973 -60.55194 25161 ft 461 kts 40°
2026-05-09 20:04 -36.87336 -60.52938 25161 ft 460 kts 40°
2026-05-09 20:04 -36.84690 -60.50676 25158 ft 460 kts 40°
2026-05-09 20:05 -36.82051 -60.48422 25152 ft 459 kts 40°
2026-05-09 20:05 -36.79421 -60.46178 25155 ft 458 kts 40°
2026-05-09 20:05 -36.76791 -60.43935 25157 ft 458 kts 40°
2026-05-09 20:05 -36.74156 -60.41689 25156 ft 457 kts 40°
2026-05-09 20:06 -36.71537 -60.39458 25158 ft 457 kts 40°
2026-05-09 20:06 -36.68912 -60.37225 25156 ft 457 kts 40°
2026-05-09 20:06 -36.66314 -60.35019 25153 ft 456 kts 40°
2026-05-09 20:06 -36.63692 -60.32792 25155 ft 456 kts 40°
2026-05-09 20:07 -36.61070 -60.30568 25154 ft 456 kts 40°
2026-05-09 20:07 -36.58450 -60.28347 25152 ft 456 kts 40°
2026-05-09 20:07 -36.55825 -60.26124 25150 ft 456 kts 40°
2026-05-09 20:07 -36.53199 -60.23902 25149 ft 457 kts 40°
2026-05-09 20:08 -36.50572 -60.21681 25151 ft 457 kts 40°
2026-05-09 20:08 -36.45299 -60.17254 25154 ft 457 kts 39°
2026-05-09 20:08 -36.42670 -60.15052 25151 ft 457 kts 39°
2026-05-09 20:09 -36.40028 -60.12839 25152 ft 457 kts 39°
2026-05-09 20:09 -36.37387 -60.10629 25151 ft 458 kts 39°
2026-05-09 20:09 -36.34745 -60.08420 25149 ft 457 kts 39°
2026-05-09 20:09 -36.32107 -60.06215 25154 ft 458 kts 39°
2026-05-09 20:10 -36.29467 -60.04011 25150 ft 457 kts 39°
2026-05-09 20:10 -36.26820 -60.01803 25138 ft 457 kts 39°
2026-05-09 20:10 -36.24180 -59.99602 25147 ft 457 kts 39°
2026-05-09 20:10 -36.21541 -59.97404 25144 ft 457 kts 39°
2026-05-09 20:11 -36.18902 -59.95207 25149 ft 456 kts 39°
2026-05-09 20:11 -36.16297 -59.93039 25141 ft 456 kts 39°
2026-05-09 20:11 -36.13662 -59.90850 25137 ft 456 kts 39°
2026-05-09 20:11 -36.11032 -59.88667 25153 ft 455 kts 39°
2026-05-09 20:12 -36.08397 -59.86481 25149 ft 455 kts 39°
2026-05-09 20:12 -36.05762 -59.84296 25145 ft 455 kts 38°
2026-05-09 20:12 -36.03137 -59.82122 25145 ft 454 kts 38°
2026-05-09 20:12 -36.00514 -59.79952 25142 ft 454 kts 38°
2026-05-09 20:13 -35.97888 -59.77781 25144 ft 454 kts 38°
2026-05-09 20:13 -35.95264 -59.75612 25144 ft 454 kts 38°
2026-05-09 20:13 -35.92645 -59.73451 25133 ft 454 kts 38°
2026-05-09 20:13 -35.90020 -59.71285 25132 ft 453 kts 38°
2026-05-09 20:14 -35.87395 -59.69121 25137 ft 453 kts 37°
2026-05-09 20:14 -35.84776 -59.66963 25133 ft 453 kts 37°
2026-05-09 20:14 -35.82160 -59.64811 25136 ft 453 kts 37°
2026-05-09 20:14 -35.79539 -59.62654 25135 ft 453 kts 37°
2026-05-09 20:15 -35.76919 -59.60501 25140 ft 453 kts 37°
2026-05-09 20:15 -35.74325 -59.58370 25149 ft 453 kts 36°
2026-05-09 20:15 -35.71678 -59.56199 25135 ft 453 kts 36°
2026-05-09 20:15 -35.69071 -59.54062 25140 ft 452 kts 36°
2026-05-09 20:16 -35.66538 -59.51986 25156 ft 453 kts 36°
2026-05-09 20:16 -35.63915 -59.49838 25136 ft 453 kts 36°
2026-05-09 20:16 -35.61289 -59.47690 25134 ft 452 kts 36°
2026-05-09 20:16 -35.58676 -59.45556 25140 ft 452 kts 35°
2026-05-09 20:17 -35.56052 -59.43414 25132 ft 452 kts 35°
2026-05-09 20:17 -35.53429 -59.41275 25130 ft 452 kts 35°
2026-05-09 20:17 -35.50814 -59.39144 25140 ft 451 kts 35°
2026-05-09 20:17 -35.48193 -59.37010 25146 ft 452 kts 35°
2026-05-09 20:18 -35.45572 -59.34876 25133 ft 452 kts 34°
2026-05-09 20:18 -35.42926 -59.32810 25135 ft 451 kts 32°
2026-05-09 20:18 -35.40232 -59.30817 25132 ft 451 kts 31°
2026-05-09 20:18 -35.37533 -59.28843 25133 ft 451 kts 31°
2026-05-09 20:19 -35.34840 -59.26865 25131 ft 451 kts 31°
2026-05-09 20:19 -35.32161 -59.24886 25146 ft 450 kts 31°
2026-05-09 20:19 -35.29477 -59.22896 25133 ft 451 kts 31°
2026-05-09 20:19 -35.26797 -59.20905 24952 ft 450 kts 31°
2026-05-09 20:20 -35.24122 -59.18918 24514 ft 448 kts 31°
2026-05-09 20:20 -35.21502 -59.16972 23936 ft 445 kts 31°
2026-05-09 20:20 -35.18821 -59.15115 23257 ft 439 kts 26°
2026-05-09 20:20 -35.16110 -59.13447 22564 ft 434 kts 26°
2026-05-09 20:21 -35.13489 -59.11827 21900 ft 431 kts 27°
2026-05-09 20:21 -35.10850 -59.10195 21243 ft 430 kts 27°
2026-05-09 20:21 -35.08192 -59.08550 20599 ft 427 kts 27°
2026-05-09 20:21 -35.05551 -59.06918 19950 ft 423 kts 27°
2026-05-09 20:22 -35.02940 -59.05306 19333 ft 421 kts 28°
2026-05-09 20:22 -35.00315 -59.03686 18714 ft 420 kts 28°
2026-05-09 20:22 -34.97724 -59.02087 18058 ft 416 kts 28°
2026-05-09 20:22 -34.95160 -59.00505 17376 ft 412 kts 28°
2026-05-09 20:23 -34.92603 -58.98928 16704 ft 409 kts 28°
2026-05-09 20:23 -34.90077 -58.97372 16044 ft 405 kts 27°
2026-05-09 20:23 -34.87607 -58.95960 15422 ft 402 kts 25°
2026-05-09 20:23 -34.85042 -58.94585 14777 ft 399 kts 24°
2026-05-09 20:24 -34.82605 -58.93291 14180 ft 396 kts 24°
2026-05-09 20:24 -34.80091 -58.91949 13516 ft 392 kts 24°
2026-05-09 20:24 -34.77612 -58.90612 12832 ft 389 kts 24°
2026-05-09 20:24 -34.75144 -58.89274 12157 ft 385 kts 24°
2026-05-09 20:25 -34.72707 -58.87951 11494 ft 381 kts 24°
2026-05-09 20:25 -34.70301 -58.86646 10854 ft 377 kts 24°
2026-05-09 20:25 -34.67920 -58.85355 10218 ft 373 kts 24°
2026-05-09 20:25 -34.65554 -58.84072 9544 ft 369 kts 24°
2026-05-09 20:26 -34.63256 -58.82828 8858 ft 366 kts 24°
2026-05-09 20:26 -34.60916 -58.81563 8169 ft 362 kts 24°
2026-05-09 20:26 -34.58648 -58.80338 7489 ft 358 kts 24°
2026-05-09 20:26 -34.56336 -58.79281 6842 ft 355 kts 14°
2026-05-09 20:27 -34.53929 -58.78745 6172 ft 350 kts
2026-05-09 20:27 -34.51579 -58.78486 5516 ft 343 kts
2026-05-09 20:27 -34.49331 -58.78225 5238 ft 321 kts
2026-05-09 20:27 -34.47215 -58.77972 5140 ft 295 kts
2026-05-09 20:28 -34.45298 -58.77741 5133 ft 270 kts
2026-05-09 20:28 -34.43500 -58.77523 5128 ft 248 kts
2026-05-09 20:28 -34.41860 -58.77326 5129 ft 227 kts
2026-05-09 20:29 -34.38898 -58.76973 5132 ft 204 kts
2026-05-09 20:29 -34.37469 -58.76764 5121 ft 208 kts 15°
2026-05-09 20:29 -34.36268 -58.75843 5142 ft 208 kts 55°
2026-05-09 20:29 -34.35781 -58.74304 5189 ft 193 kts 102°
2026-05-09 20:30 -34.36268 -58.72995 5290 ft 175 kts 144°
2026-05-09 20:30 -34.37193 -58.72061 5359 ft 172 kts 149°
2026-05-09 20:30 -34.38133 -58.71168 5442 ft 172 kts 149°
2026-05-09 20:30 -34.39071 -58.70261 5519 ft 173 kts 148°
2026-05-09 20:31 -34.40007 -58.69336 5416 ft 174 kts 148°
2026-05-09 20:31 -34.40893 -58.68326 5180 ft 177 kts 140°
2026-05-09 20:31 -34.41667 -58.67151 4934 ft 180 kts 133°
2026-05-09 20:31 -34.42371 -58.65902 4675 ft 182 kts 131°
2026-05-09 20:32 -34.43088 -58.64612 4421 ft 183 kts 132°
2026-05-09 20:32 -34.43800 -58.63336 4162 ft 184 kts 132°
2026-05-09 20:32 -34.44304 -58.62434 3987 ft 185 kts 132°
2026-05-09 20:32 -34.44982 -58.61215 3787 ft 181 kts 132°
2026-05-09 20:33 -34.45674 -58.59971 3516 ft 175 kts 132°
2026-05-09 20:33 -34.46285 -58.58876 3292 ft 170 kts 133°
2026-05-09 20:33 -34.46831 -58.57898 3093 ft 166 kts 133°
2026-05-09 20:33 -34.47405 -58.56867 2882 ft 158 kts 133°
2026-05-09 20:34 -34.47993 -58.55807 2670 ft 145 kts 134°
2026-05-09 20:34 -34.48526 -58.54858 2480 ft 137 kts 135°
2026-05-09 20:34 -34.49063 -58.53903 2304 ft 141 kts 134°
2026-05-09 20:34 -34.49605 -58.52923 2108 ft 140 kts 134°
2026-05-09 20:35 -34.50110 -58.52023 1932 ft 138 kts 134°
2026-05-09 20:35 -34.50622 -58.51101 1754 ft 138 kts 135°
2026-05-09 20:35 -34.51159 -58.50138 1566 ft 137 kts 135°
2026-05-09 20:35 -34.51681 -58.49196 1376 ft 132 kts 134°
2026-05-09 20:36 -34.52166 -58.48336 1203 ft 136 kts 134°
2026-05-09 20:36 -34.52684 -58.47395 1032 ft 130 kts 134°
2026-05-09 20:36 -34.53186 -58.46500 844 ft 130 kts 133°
2026-05-09 20:36 -34.53681 -58.45606 660 ft 125 kts 130°
2026-05-09 20:37 -34.54169 -58.44756 533 ft 127 kts 131°
2026-05-09 20:37 -34.54654 -58.43860 334 ft 125 kts 127°
2026-05-09 20:37 -34.54850 -58.43488 266 ft 124 kts 126°
2026-05-09 20:37 -34.55466 -58.42376 89 ft 125 kts 129°
2026-05-09 20:38 -34.55926 -58.41566 25 ft 100 kts 124°
2026-05-09 20:38 -34.56137 -58.41190 29 ft 60 kts 123°
2026-05-09 20:38 -34.56253 -58.40972 26 ft 25 kts 123°
2026-05-09 20:38 -34.56326 -58.40843 25 ft 9 kts 124°
2026-05-09 20:39 -34.56391 -58.40725 24 ft 17 kts 122°
2026-05-09 20:39 -34.56405 -58.40683 22 ft 12 kts 101°
2026-05-09 20:39 -34.56390 -58.40642 27 ft 1 kts
2026-05-09 20:39 -34.56375 -58.40647 22 ft 8 kts 346°
2026-05-09 20:40 -34.56315 -58.40701 27 ft 18 kts 312°
2026-05-09 20:40 -34.56227 -58.40826 26 ft 26 kts 311°
2026-05-09 20:40 -34.56116 -58.40984 25 ft 21 kts 309°
2026-05-09 20:40 -34.56013 -58.41048 28 ft 16 kts 346°
2026-05-09 20:41 -34.55919 -58.41142 28 ft 13 kts 311°
2026-05-09 20:41 -34.55910 -58.41154 28 ft 0 kts 311°
2026-05-09 20:43 -34.55901 -58.41167 27 ft 7 kts 311°
2026-05-09 20:43 -34.55852 -58.41243 26 ft 10 kts 303°
2026-05-09 20:43 -34.55836 -58.41273 27 ft 9 kts 303°
2026-05-09 20:43 -34.55805 -58.41291 29 ft 9 kts 358°
2026-05-09 20:44 -34.55786 -58.41286 31 ft 0 kts 25°